Location: Hamburg
(53.5500°N, 10.0000°E)
Time: 16:08:27
(UTC+02:00)

Daily predictions for brighter satellites

Satellite Brightness Start Highest point End
(mag) Time Altitude Azimuth Time Altitude Azimuth Time Altitude Azimuth
SL-08 RB Rocket 3.8 22:19:56 10° SSE 22:24:27 72° ENE 22:28:58 10° NNW
Envisat 4.1 22:19:58 10° S 22:24:48 44° W 22:29:41 10° NNW
UNK 4.3 22:20:22 10° NNE 22:25:48 73° ESE 22:31:30 10° S
Cosmos 1766 3.4 22:24:12 10° NNW 22:28:14 86° W 22:32:16 10° S
Cosmos 407 Rocket 3.6 22:23:16 10° S 22:28:25 60° ESE 22:33:33 10° NNE
YAOGAN 6 3.1 22:27:23 10° S 22:31:05 60° W 22:34:50 10° NNW
Cosmos 1758 Rocket 3.5 22:31:13 10° S 22:35:34 72° E 22:39:54 10° NNE
Cosmos 1758 3.5 22:33:48 10° N 22:37:55 64° ENE 22:42:00 10° SSE
CARTOSAT-1 3.9 22:33:53 10° SE 22:38:06 55° ENE 22:42:20 10° N
Cosmos 1943 Rocket 2.5 22:34:13 10° NW 22:39:41 62° WSW 22:45:11 10° SSE
Cosmos 1066 Rocket 4.5 22:34:10 10° SSW 22:39:57 82° WNW 22:45:52 10° NNE
Cosmos 1544 4.2 22:36:47 10° N 22:40:15 33° ENE 22:43:42 10° SE
COSMOS 2406 4.1 22:35:23 10° SSE 22:40:19 31° ESE 22:45:19 10° NE
SAR-Lupe-2 3.7 22:41:11 10° SSE 22:44:43 62° ENE 22:48:18 10° N
Cosmos 1818 4.1 22:40:21 10° NW 22:45:47 56° NE 22:51:11 10° ESE
Cosmos 1656 Rocket 3.8 22:41:19 10° NNW 22:47:04 85° ENE 22:52:45 10° SSE
Cosmos 1954 Rocket 4.2 22:44:38 10° S 22:49:48 55° ESE 22:54:58 10° NNE
Cosmos 1825 Rocket 4.4 22:46:58 10° SSW 22:51:19 53° WNW 22:55:40 10° N
Cosmos 1470 3.6 22:50:33 10° N 22:54:13 37° ENE 22:57:37 11° SE
Cosmos 1805 3.3 22:51:06 10° N 22:55:05 82° ENE 22:59:01 10° SSE
Cosmos 2208 Rocket 4.1 22:50:58 10° NNW 22:56:11 79° WSW 23:01:16 10° SSE
Cosmos 1943 3.5 22:51:08 10° SW 22:56:49 74° NW 23:02:34 10° NNE
IGS 5A 3.5 22:53:58 10° SSE 22:58:02 71° ENE 23:02:12 10° N
SeaSat 1 4.0 22:54:55 10° S 22:59:11 29° WSW 23:03:29 10° NW
SL-27 R/B 2.5 22:56:48 10° S 23:00:03 51° ESE 23:03:21 10° NNE
Cosmos 1842 Rocket 3.6 22:55:49 10° N 23:00:12 71° ENE 23:04:23 11° SSE
Lacrosse 4 Rocket 1.5 22:59:09 10° SW 23:03:13 80° NW 23:07:25 10° NE
ATLAS 3B R/B 2.9 22:57:27 10° SW 23:05:09 81° SE 23:12:34 10° NE
Nadezhda 4 Rocket 4.2 23:00:45 10° S 23:06:56 59° E 23:13:08 10° NNE
CZ-4B R/B 4.0 23:05:01 10° NNE 23:10:02 63° WNW 23:15:10 10° SSW
COSMOS 2487 3.8 23:08:39 13° SSE 23:11:00 24° ESE 23:13:58 10° NE
Landsat 7 4.2 23:06:23 10° S 23:11:04 62° WSW 23:15:50 10° NNW
CZ-4 R/B 4.1 23:08:13 10° NNE 23:13:14 78° WNW 23:18:15 10° SSW
Cosmos 1741 Rocket 4.4 23:09:08 10° S 23:14:10 46° ESE 23:19:15 10° NE
CZ-4C R/B 4.4 23:13:19 10° S 23:17:13 41° W 23:20:56 10° NNW
ARGOS 4.3 23:14:43 10° SSW 23:19:47 40° W 23:24:54 10° NNW
USA 234 4.0 23:15:09 12° SSE 23:20:47 38° SW 23:26:50 10° WNW
ISS -3.3 23:21:28 10° WSW 23:24:41 59° S 23:27:55 10° E
CZ-4B R/B 3.8 23:23:06 10° ESE 23:25:38 18° ENE 23:28:13 10° NNE
Cosmos 1953 3.3 23:22:01 10° NNW 23:25:47 41° W 23:29:33 10° SSW
Spot 4 4.0 23:22:24 12° S 23:26:46 73° WSW 23:31:36 10° NNW
Terra 2.2 23:22:24 11° S 23:26:54 61° WSW 23:31:39 10° NNW
Cosmos 1850 Rocket 4.1 23:24:36 10° S 23:29:44 61° ESE 23:34:53 10° NNE
Cosmos 2221 2.9 23:25:50 10° N 23:30:05 51° ENE 23:33:22 16° SSE
Cosmos 1607 4.2 23:24:09 10° SSW 23:30:08 49° ESE 23:36:05 10° NE
Lacrosse 5 rocket 2.1 23:27:24 10° WNW 23:31:26 55° N 23:35:41 10° E
Cosmos 1707 3.6 23:29:20 16° SSE 23:31:59 35° E 23:35:35 10° NNE
Cosmos-2242 4.4 23:28:40 10° NNW 23:32:39 34° W 23:36:36 10° SSW
Cosmos 1140 Rocket 3.5 23:28:14 10° SSW 23:33:29 79° ESE 23:38:45 10° NNE
Cosmos 468 Rocket 4.1 23:31:08 10° NNW 23:36:27 75° ENE 23:40:46 15° SSE
H-2A R/B 2.6 23:31:48 10° S 23:36:35 50° W 23:41:37 10° NNW
Cosmos 1932 4.4 23:32:06 10° SW 23:38:18 79° SE 23:44:36 10° NE
Lacrosse 5 1.9 23:36:05 10° WNW 23:41:11 84° NNE 23:46:17 10° ESE
COSMOS 2455 4.4 23:37:12 10° WSW 23:42:51 40° NNW 23:48:32 10° NE
CZ-4C R/B 4.1 23:43:25 15° ESE 23:45:34 31° ENE 23:48:29 10° N
Cosmos 2026 Rocket 4.3 23:41:26 15° SSE 23:46:12 49° E 23:52:02 10° NNE
Cosmos 1814 Rocket 4.1 23:41:44 10° NNW 23:47:03 79° ENE 23:51:18 16° SSE
Cosmos 2369 3.8 23:42:32 10° NNW 23:48:13 77° NE 23:52:59 15° SE
Cosmos 1733 3.2 23:44:51 10° NNW 23:48:45 80° W 23:51:31 18° S
USA 238 DEB 3.7 23:44:57 10° SW 23:52:02 74° SE 23:59:05 10° NE
USA 238 3.7 23:45:04 10° SW 23:52:07 74° SE 23:59:10 10° NE
CZ-4C R/B 3.0 23:48:17 15° S 23:52:08 33° ESE 23:57:32 10° ENE
ATLAS CENTAUR R/B 4.4 23:48:28 10° NW 23:52:24 22° N 23:56:13 10° NE
Cosmos 614 Rocket 4.0 23:48:50 10° SSW 23:54:01 77° ESE 23:59:16 10° NNE
NOSS 2 (F) 4.5 23:52:52 10° NW 23:55:40 84° NE 23:57:46 19° SE
SL-23 DEB 4.1 23:52:22 10° SW 23:56:46 42° SSE 23:59:54 10° E
